Regional Weather Roundup
Issued by NWS

Home | Current Version | Previous Version | Graphics & Text | Print | Product List | Glossary On
Versions: 1 2 3 4 5 6 7 8 9 10 11 12 13 14 15 16 17 18 19 20 21 22 23 24 25 26 27 28
000
ASUS45 KBOU 191907
RWRCO

WEATHER ROUNDUP FOR COLORADO
NATIONAL WEATHER SERVICE DENVER/BOULDER CO
1200 PM MST SUN FEB 19 2017

NOTE: "FAIR" INDICATES FEW OR NO CLOUDS BELOW 12000 FEET WITH NO
SIGNIFICANT WEATHER AND/OR OBSTRUCTIONS TO VISIBILITY.

COZ001>005-013-030-031-192000-
...NORTHWEST COLORADO...

CITY           SKY/WX    TMP DP  RH WIND       PRES   REMARKS
CRAIG          PTSUNNY   44  30  57 NE5       29.71F
HAYDEN         FAIR      37  27  65 E8        29.71F
MEEKER         CLOUDY    42  32  67 CALM      29.71F
MOUNT WERNER   NOT AVBL
STEAMBOAT SPGS NOT AVBL
WALDEN         NOT AVBL
$$

COZ006>008-011-192000-
...WEST CENTRAL VALLEYS...

CITY           SKY/WX    TMP DP  RH WIND       PRES   REMARKS
GRAND JUNCTION CLOUDY    47  37  68 NW12      29.73R
MONTROSE       LGT RAIN  44  33  65 SW16G25   29.79R
EAGLE          MOSUNNY   45  30  57 CALM      29.73F
RIFLE          FAIR      44  33  65 W6        29.71F
DELTA          PTSUNNY   49  37  62 SW7       29.75R
NUCLA          CLOUDY    41  34  75 S6        29.86S
$$

COZ017>023-064>068-192000-
...SOUTHWEST COLORADO...

CITY           SKY/WX    TMP DP  RH WIND       PRES   REMARKS
DURANGO        FLURRIES  35  34  96 NW13      29.86S WCI  26
CORTEZ         CLOUDY    41  38  89 NE8       29.85F
PAGOSA SPRINGS LGT SNOW  36  34  95 SW8       29.85F
TELLURIDE      SNOW      29  27  94 W7G20     29.84S VSB 1/4 WCI  22
WOLF CREEK PAS HVY SNOW  19  19 100 SW26G36   29.88F VSB<1/4 WCI   1
$$

COZ009-010-012-014-032>034-037-058>063-192000-
...CENTRAL COLORADO...

CITY           SKY/WX    TMP DP  RH WIND       PRES   REMARKS
ASPEN          FAIR      47  27  45 N10G16    29.67F
BUENA VISTA    NOT AVBL
COPPER MTN     FAIR      34  19  55 SE15G24   29.82F WCI  24
BERTHOUD PASS  FAIR      27  16  63 S21G35    29.86F WCI  13
COTTONWOOD PAS CLOUDY    41  23  48 E16       29.79S
GUNNISON       CLOUDY    36  26  67 S3        29.75S
KREMMLING      PTSUNNY   43  30  61 SW3       29.74F
LEADVILLE      FAIR      35  21  56 S14       29.74F WCI  26
SALIDA         FAIR      51  24  34 S28G38    29.77F
SUNLIGHT       NOT AVBL
WILKERSON PASS FAIR      37  19  48 SW8       29.85F
$$

COZ069>075-192000-
...SAN LUIS VALLEY/SANGRE DE CRISTO MOUNTAINS...

CITY           SKY/WX    TMP DP  RH WIND       PRES   REMARKS
ALAMOSA        FAIR      46  31  55 S20G26    29.77F
LA VETA PASS   FAIR      41  23  48 NE14G28   29.82F
SAGUACHE       FAIR      46  28  49 S10G18    29.77F
$$

COZ035-036-038>040-192000-
...NORTHERN COLORADO FRONT RANGE...

CITY           SKY/WX    TMP DP  RH WIND       PRES   REMARKS
DENVER INTL AP PTSUNNY   59  26  28 N8        29.64F
DMNS CITY PARK   N/A     60  23  24 N12       29.62F
AURORA         PTSUNNY   61  25  25 E10       29.63F
FRONT RANGE AP PTSUNNY   64  21  19 SE15G22   29.64
ERIE MUNI ARPT FAIR      57  25  28 N5        29.64F
BOULDER MUN AP FAIR      55  27  33 NE3       29.64F
CENTENNIAL     PTSUNNY   62  19  19 S16G24    29.64F
BROOMFIELD     PTSUNNY   57  25  28 VRB5      29.66F
FORT COLLINS   FAIR      56  28  34 VRB6      29.65F
LONGMONT       FAIR      60  26  28 NE6       29.66F
$$

COZ041-046-047-076>085-087-088-192000-
...PIKES PEAK/PALMER DIVIDE AND SOUTHERN FOOTHILLS...

CITY           SKY/WX    TMP DP  RH WIND       PRES   REMARKS
COLO. SPRINGS  PTSUNNY   54  24  31 SE10      29.70F
A. F. ACADEMY  FAIR      54  21  27 SE12      29.68F
SCHRIEVER AFB  FAIR      55  24  30 S14G21    29.70F
ELLICOTT       FAIR     N/A N/A N/A S18G24    29.68F
FALCON         NOT AVBL
FORT CARSON    FAIR      56  24  28 SE9       29.68F
LIMON          FAIR      61  29  29 S20G28    29.69F
MONUMENT HILL  FAIR      52  21  30 S17G23    29.72F
TRINIDAD       FAIR      58  27  30 S18G28    29.71F
$$

COZ042>045-048>051-090-091-192000-
...NORTHEAST COLORADO...

CITY           SKY/WX    TMP DP  RH WIND       PRES   REMARKS
GREELEY ARPT   FAIR      53  28  38 CALM      29.66F
AKRON          FAIR      65  27  23 S18       29.65F
BURLINGTON     FAIR      66  38  35 S29G38    29.68F
WRAY           NOT AVBL
STERLING       FAIR      55  30  38 S7        29.64F
HOLYOKE        FAIR      61  32  33 S7        29.68F
FORT MORGAN    FAIR      58  26  28 E5        29.64F
$$

COZ086-089-092>099-192000-
...SOUTHEAST COLORADO...

CITY           SKY/WX    TMP DP  RH WIND       PRES   REMARKS
PUEBLO         FAIR      59  30  33 E12       29.64F
LA JUNTA       FAIR      65  33  30 S7        29.67F
LAMAR          FAIR      62  37  39 S18       29.69F
SPRINGFIELD      N/A     54  40  59 S17G24    29.77S
$$




USA.gov is the U.S. government's official web portal to all federal, state and local government web resources and services.